N2RDT Weather Reports


Display with metric or nautical units.
time (UTC)temp
F
wind
direction
speed
MPH
gust
MPH
rain 1hr
in
rain 24hr
in
rain mn
in
humidity
%
barometer
mb
20260510173034 0 0.0 0.0 0.00 0.00 0.00 1015.4
20260510172530 0 0.0 0.0 0.00 0.00 0.00 1015.2
20260510172026 0 0.0 0.0 0.00 0.00 0.00 1015.3
20260510171523 0 0.0 0.0 0.00 0.00 0.00 1015.3
20260510171020 0 0.0 0.0 0.00 0.00 0.00 1015.2
20260510170517 0 0.0 0.0 0.00 0.00 0.00 1015.4
20260510170014 0 0.0 0.0 0.00 0.00 0.00 1015.3
20260510165509 0 0.0 0.0 0.00 0.00 0.00 1015.3
20260510165006 0 0.0 0.0 0.00 0.00 0.00 1015.6
20260510164502 0 0.0 0.0 0.00 0.00 0.00 1015.5
20260510163958 78 228 2.0 3.0 0.00 0.00 0.00 41 1015.5
20260510163454 78 228 2.0 3.0 0.00 0.00 0.00 41 1015.7
20260510162949 78 228 2.0 3.0 0.00 0.00 0.00 41 1015.5
20260510162446 78 228 2.0 3.0 0.00 0.00 0.00 41 1015.6
20260510161942 78 228 2.0 3.0 0.00 0.00 0.00 41 1015.6
20260510161438 78 228 2.0 3.0 0.00 0.00 0.00 41 1015.8
20260510160936 78 228 2.0 3.0 0.00 0.00 0.00 41 1015.8
20260510160433 78 228 2.0 3.0 0.00 0.00 0.00 41 1015.8
20260510155931 78 228 2.0 3.0 0.00 0.00 0.00 41 1015.9
20260510155428 78 228 2.0 3.0 0.00 0.00 0.00 41 1015.9
20260510154924 78 228 2.0 3.0 0.00 0.00 0.00 41 1016.1
20260510154420 78 228 2.0 3.0 0.00 0.00 0.00 41 1016.2
20260510153914 79 38 4.0 4.0 0.00 0.00 0.00 45 1016.1
20260510153411 79 38 4.0 4.0 0.00 0.00 0.00 45 1016.3
20260510152908 79 38 4.0 4.0 0.00 0.00 0.00 45 1016.1
20260510152405 79 38 4.0 4.0 0.00 0.00 0.00 45 1016.2
20260510151901 79 38 4.0 4.0 0.00 0.00 0.00 45 1016.0
20260510151359 79 38 4.0 4.0 0.00 0.00 0.00 45 1016.0
20260510150855 79 38 4.0 4.0 0.00 0.00 0.00 45 1016.1
20260510150351 79 109 1.0 2.0 0.00 0.00 0.00 51 1015.9
20260510145847 76 94 0.0 2.0 0.00 0.00 0.00 55 1015.9
20260510145344 76 94 0.0 2.0 0.00 0.00 0.00 55 1016.2
20260510144840 76 94 0.0 2.0 0.00 0.00 0.00 55 1016.1
20260510144337 76 94 0.0 2.0 0.00 0.00 0.00 55 1015.8
20260510143836 76 94 0.0 2.0 0.00 0.00 0.00 55 1015.9
20260510143333 76 94 0.0 2.0 0.00 0.00 0.00 55 1015.9
20260510142830 76 94 0.0 2.0 0.00 0.00 0.00 55 1015.9
20260510142327 76 94 0.0 2.0 0.00 0.00 0.00 55 1015.8
20260510141823 76 94 0.0 2.0 0.00 0.00 0.00 55 1015.7
20260510141321 76 94 0.0 2.0 0.00 0.00 0.00 55 1015.8
20260510140819 75 214 3.0 4.0 0.00 0.00 0.00 55 1015.8
20260510140315 75 257 2.0 5.0 0.00 0.00 0.00 58 1015.9
20260510135813 75 161 3.0 4.0 0.00 0.00 0.00 56 1015.9
20260510135309 75 232 2.0 4.0 0.00 0.00 0.00 55 1015.9
20260510134807 75 251 2.0 2.0 0.00 0.00 0.00 57 1015.9
20260510134304 75 268 4.0 4.0 0.00 0.00 0.00 58 1015.9
20260510133759 74 223 2.0 4.0 0.00 0.00 0.00 60 1015.7
20260510133256 74 223 2.0 4.0 0.00 0.00 0.00 60 1015.7
20260510132751 73 272 2.0 3.0 0.00 0.00 0.00 62 1015.8
20260510132250 73 272 2.0 3.0 0.00 0.00 0.00 62 1015.8
20260510131746 65 131 1.0 2.0 0.00 0.00 0.00 89 1015.6
20260510131244 65 131 1.0 2.0 0.00 0.00 0.00 89 1015.7
20260510130740 65 131 1.0 2.0 0.00 0.00 0.00 89 1015.6
20260510130237 65 131 1.0 2.0 0.00 0.00 0.00 89 1015.4
20260510125734 65 131 1.0 2.0 0.00 0.00 0.00 89 1015.4
20260510125229 65 131 1.0 2.0 0.00 0.00 0.00 89 1015.4
20260510124726 65 131 1.0 2.0 0.00 0.00 0.00 89 1015.4
20260510124224 65 131 1.0 2.0 0.00 0.00 0.00 89 1015.3
20260510123719 65 131 1.0 2.0 0.00 0.00 0.00 89 1015.4
20260510123215 65 131 1.0 2.0 0.00 0.00 0.00 89 1015.2
20260510122712 65 131 1.0 2.0 0.00 0.00 0.00 89 1015.3
20260510122208 65 131 1.0 4.0 0.00 0.00 0.00 89 1015.2
20260510121704 63 85 2.0 2.0 0.00 0.00 0.00 93 1015.3
20260510121202 63 85 2.0 2.0 0.00 0.00 0.00 93 1015.0
20260510120659 63 97 2.0 3.0 0.00 0.00 0.00 93 1015.0
20260510120156 63 142 2.0 2.0 0.00 0.00 0.00 94 1015.0
20260510115651 61 70 2.0 2.0 0.00 0.00 0.00 98 1014.9
20260510115150 61 70 2.0 2.0 0.00 0.00 0.00 98 1015.1
20260510114645 61 70 2.0 2.0 0.00 0.00 0.00 98 1014.9
20260510114142 61 70 2.0 2.0 0.00 0.00 0.00 98 1014.8
20260510113637 61 70 2.0 2.0 0.00 0.00 0.00 98 1014.9
20260510113134 61 74 2.0 2.0 0.00 0.00 0.00 98 1014.8
20260510112631 60 102 2.0 2.0 0.00 0.00 0.00 98 1014.6
20260510112128 60 62 1.0 2.0 0.00 0.00 0.00 98 1014.7
20260510111624 60 90 2.0 3.0 0.00 0.00 0.00 98 1014.6
20260510111120 59 66 2.0 3.0 0.00 0.00 0.00 98 1014.3
20260510110616 59 66 2.0 3.0 0.00 0.00 0.00 98 1014.2
20260510110113 59 109 1.0 2.0 0.00 0.00 0.00 98 1014.3
20260510105608 59 104 2.0 3.0 0.00 0.00 0.00 98 1014.4
20260510105103 59 118 3.0 4.0 0.00 0.00 0.00 98 1014.3
20260510104600 0 0.0 0.0 0.00 0.00 0.00 1014.2
20260510104056 0 0.0 0.0 0.00 0.00 0.00 1013.8
20260510103554 59 69 1.0 2.0 0.00 0.00 0.00 97 1013.7
20260510103049 59 69 1.0 2.0 0.00 0.00 0.00 97 1013.6
20260510102545 59 69 1.0 2.0 0.00 0.00 0.00 97 1013.7
20260510102041 59 69 1.0 2.0 0.00 0.00 0.00 97 1013.7
20260510101539 59 69 1.0 2.0 0.00 0.00 0.00 97 1013.5
20260510101038 59 69 1.0 2.0 0.00 0.00 0.00 97 1013.5
20260510100533 59 69 1.0 2.0 0.00 0.00 0.00 97 1013.4
20260510100031 59 69 1.0 2.0 0.00 0.00 0.00 97 1013.3
20260510095526 59 69 1.0 2.0 0.00 0.00 0.00 97 1013.3
20260510095025 59 69 1.0 2.0 0.00 0.00 0.00 97 1013.1
20260510094520 59 69 1.0 2.0 0.00 0.00 0.00 97 1013.0
20260510094016 59 69 1.0 2.0 0.00 0.00 0.00 97 1013.1
20260510093512 59 54 0.0 0.0 0.00 0.00 0.00 97 1013.2
20260510093009 59 54 0.0 0.0 0.00 0.00 0.00 97 1013.0
20260510092506 59 72 2.0 2.0 0.00 0.00 0.00 97 1013.0
20260510092006 59 75 1.0 2.0 0.00 0.00 0.00 97 1012.8
20260510091503 59 62 2.0 2.0 0.00 0.00 0.00 97 1012.7
20260510090959 59 111 2.0 2.0 0.00 0.00 0.00 97 1012.9
20260510090456 60 126 0.0 1.0 0.00 0.00 0.00 97 1012.8
20260510085951 60 126 0.0 1.0 0.00 0.00 0.00 97 1012.8
20260510085447 60 126 0.0 1.0 0.00 0.00 0.00 97 1012.8
20260510084942 60 126 0.0 1.0 0.00 0.00 0.00 97 1012.6
20260510084440 60 126 0.0 1.0 0.00 0.00 0.00 97 1012.5
20260510083936 60 126 0.0 1.0 0.00 0.00 0.00 97 1012.5
20260510083433 60 76 0.0 1.0 0.00 0.00 0.00 97 1012.5
20260510082928 60 76 0.0 1.0 0.00 0.00 0.00 97 1012.4
20260510082426 60 76 0.0 1.0 0.00 0.00 0.00 97 1012.5
20260510081925 60 76 0.0 1.0 0.00 0.00 0.00 97 1012.4
20260510081421 60 76 0.0 1.0 0.00 0.00 0.00 97 1012.4
20260510080918 60 76 0.0 1.0 0.00 0.00 0.00 97 1012.4
20260510080417 60 78 2.0 2.0 0.00 0.00 0.00 96 1012.4
20260510075914 60 78 2.0 2.0 0.00 0.00 0.00 96 1012.5
20260510075412 0 0.0 0.0 0.00 0.00 0.00 1012.4
20260510074908 0 0.0 0.0 0.00 0.00 0.00 1012.3
20260510074405 60 94 0.0 0.0 0.00 0.00 0.00 94 1012.2
20260510073902 60 94 0.0 0.0 0.00 0.00 0.00 94 1012.3
20260510073357 60 94 0.0 0.0 0.00 0.00 0.00 94 1012.3
20260510072853 60 94 0.0 0.0 0.00 0.00 0.00 94 1012.4
20260510072351 60 94 0.0 0.0 0.00 0.00 0.00 94 1012.3
20260510071846 60 94 0.0 0.0 0.00 0.00 0.00 94 1012.4
20260510071343 60 94 0.0 0.0 0.00 0.00 0.00 94 1012.5
20260510070842 60 94 0.0 0.0 0.00 0.00 0.00 94 1012.3
20260510070339 60 94 0.0 0.0 0.00 0.00 0.00 94 1012.3
20260510065838 60 94 0.0 0.0 0.00 0.00 0.00 94 1012.2
20260510065336 60 94 0.0 0.0 0.00 0.00 0.00 94 1012.3
20260510064832 60 94 0.0 0.0 0.00 0.00 0.00 94 1012.3
20260510064330 60 56 1.0 2.0 0.00 0.00 0.00 94 1012.0
20260510063826 0 0.0 0.0 0.00 0.00 0.00 1012.1
20260510063323 0 0.0 0.0 0.00 0.00 0.00 1012.1
20260510062819 0 0.0 0.0 0.00 0.00 0.00 1012.1
20260510062315 0 0.0 0.0 0.00 0.00 0.00 1012.1
20260510061810 0 0.0 0.0 0.00 0.00 0.00 1012.4
20260510061308 0 0.0 0.0 0.00 0.00 0.00 1012.4
20260510060804 0 0.0 0.0 0.00 0.00 0.00 1012.5
20260510060301 0 0.0 0.0 0.00 0.00 0.00 1012.5
20260510055758 0 0.0 0.0 0.00 0.00 0.00 1012.4
20260510055256 0 0.0 0.0 0.00 0.00 0.00 1012.3
20260510054755 0 0.0 0.0 0.00 0.00 0.00 1012.4
20260510054252 0 0.0 0.0 0.00 0.00 0.00 1012.5
20260510053752 0 0.0 0.0 0.00 0.00 0.00 1012.5
20260510053248 0 0.0 0.0 0.00 0.00 0.00 1012.5
20260510052744 0 0.0 0.0 0.00 0.00 0.00 1012.4
20260510052240 0 0.0 0.0 0.00 0.00 0.00 1012.5
20260510051736 0 0.0 0.0 0.00 0.00 0.00 1012.6
20260510051233 0 0.0 0.0 0.00 0.00 0.00 1012.8
20260510050729 0 0.0 0.0 0.00 0.00 0.00 1012.7
20260510050227 0 0.0 0.0 0.00 0.00 0.00 1012.9
20260510045724 0 0.0 0.0 0.00 0.00 0.00 1012.8
20260510045220 0 0.0 0.0 0.00 0.00 0.00 1012.9
20260510044716 0 0.0 0.0 0.00 0.00 0.00 1012.8
20260510044215 0 0.0 0.0 0.00 0.00 0.00 1012.8
20260510043709 0 0.0 0.0 0.00 0.00 0.00 1012.7
20260510043206 0 0.0 0.0 0.00 0.00 0.00 1012.8
20260510042704 0 0.0 0.0 0.00 0.00 0.00 1012.8
20260510042200 60 123 1.0 2.0 0.00 0.00 0.00 96 1012.8
20260510041657 60 123 1.0 2.0 0.00 0.00 0.00 96 1012.8
20260510041154 60 123 1.0 2.0 0.00 0.00 0.00 96 1012.8
20260510040651 60 123 1.0 2.0 0.00 0.00 0.00 96 1012.8
20260510040148 60 123 1.0 2.0 0.00 0.00 0.00 96 1012.6
20260510035643 60 123 1.0 2.0 0.00 0.00 0.00 96 1012.6
20260510035139 60 123 1.0 2.0 0.00 0.00 0.00 96 1012.7
20260510034636 60 123 1.0 2.0 0.00 0.00 0.00 96 1012.5
20260510034133 60 123 1.0 2.0 0.00 0.00 0.00 96 1012.7
20260510033629 60 123 1.0 2.0 0.00 0.00 0.00 96 1012.5
20260510033127 60 123 1.0 2.0 0.00 0.00 0.00 96 1012.4
20260510032623 60 123 1.0 2.0 0.00 0.00 0.00 96 1012.4
20260510032119 60 118 1.0 2.0 0.00 0.00 0.00 96 1012.6
20260510031614 60 85 1.0 2.0 0.00 0.00 0.00 96 1012.5
20260510031111 60 93 2.0 2.0 0.00 0.00 0.00 95 1012.5
20260510030605 60 97 2.0 2.0 0.00 0.00 0.00 95 1012.4
20260510030103 0 0.0 0.0 0.00 0.00 0.00 1012.3
20260510025600 0 0.0 0.0 0.00 0.00 0.00 1012.2
20260510025057 0 0.0 0.0 0.00 0.00 0.00 1012.5
20260510024548 0 0.0 0.0 0.00 0.00 0.00 1012.4
20260510024044 0 0.0 0.0 0.00 0.00 0.00 1012.5
20260510023541 0 0.0 0.0 0.00 0.00 0.00 1012.2
20260510023038 0 0.0 0.0 0.00 0.00 0.00 1012.2
20260510022537 0 0.0 0.0 0.00 0.00 0.00 1012.3
20260510022031 0 0.0 0.0 0.00 0.00 0.00 1012.4
20260510021528 0 0.0 0.0 0.00 0.00 0.00 1012.5
20260510021026 0 0.0 0.0 0.00 0.00 0.00 1012.4
20260510020520 0 0.0 0.0 0.00 0.00 0.00 1012.2
20260510020016 0 0.0 0.0 0.00 0.00 0.00 1012.2
20260510015512 0 0.0 0.0 0.00 0.00 0.00 1012.3
20260510015008 0 0.0 0.0 0.00 0.00 0.00 1012.2
20260510014505 0 0.0 0.0 0.00 0.00 0.00 1012.1
20260510014003 0 0.0 0.0 0.00 0.00 0.00 1011.9
20260510013502 0 0.0 0.0 0.00 0.00 0.00 1011.7
20260510012958 0 0.0 0.0 0.00 0.00 0.00 1011.8
20260510012453 0 0.0 0.0 0.00 0.00 0.00 1011.6
20260510011948 0 0.0 0.0 0.00 0.00 0.00 1011.6
20260510011443 0 0.0 0.0 0.00 0.00 0.00 1011.5
20260510010939 0 0.0 0.0 0.00 0.00 0.00 1011.6
20260510010437 0 0.0 0.0 0.00 0.00 0.00 1011.4
20260510005934 0 0.0 0.0 0.00 0.00 0.00 1011.5
20260510005430 0 0.0 0.0 0.00 0.00 0.00 1011.5
20260510004927 0 0.0 0.0 0.00 0.00 0.00 1011.6
20260510004425 0 0.0 0.0 0.00 0.00 0.00 1011.3
20260510003923 0 0.0 0.0 0.00 0.00 0.00 1011.4
20260510003420 0 0.0 0.0 0.00 0.00 0.00 1011.4
20260510002918 0 0.0 0.0 0.00 0.00 0.00 1011.5
20260510002415 0 0.0 0.0 0.00 0.00 0.00 1011.6
20260510001911 0 0.0 0.0 0.00 0.00 0.00 1011.5
20260510001409 0 0.0 0.0 0.00 0.00 0.00 1011.2
20260510000906 0 0.0 0.0 0.00 0.00 0.00 1011.3
20260510000403 0 0.0 0.0 0.00 0.00 0.00 1011.2
20260509235859 0 0.0 0.0 0.00 0.00 0.00 1011.1
20260509235356 0 0.0 0.0 0.00 0.00 0.00 1011.3
20260509234852 0 0.0 0.0 0.00 0.00 0.00 1011.0
20260509234349 0 0.0 0.0 0.00 0.00 0.00 1010.8
20260509233847 0 0.0 0.0 0.00 0.00 0.00 1010.8
20260509233345 0 0.0 0.0 0.00 0.00 0.00 1011.0
20260509232840 74 159 3.0 4.0 0.00 0.00 0.00 64 1011.0
20260509232338 74 159 3.0 4.0 0.00 0.00 0.00 64 1010.8
20260509231834 74 159 3.0 4.0 0.00 0.00 0.00 64 1010.7
20260509231331 74 159 3.0 4.0 0.00 0.00 0.00 64 1010.6
20260509230829 74 159 3.0 4.0 0.00 0.00 0.00 64 1010.7
20260509230326 74 159 3.0 4.0 0.00 0.00 0.00 64 1010.6
20260509225820 74 159 3.0 4.0 0.00 0.00 0.00 64 1010.4
20260509225318 74 159 3.0 4.0 0.00 0.00 0.00 64 1010.5
20260509224814 74 159 3.0 4.0 0.00 0.00 0.00 64 1010.6
20260509224310 74 159 3.0 4.0 0.00 0.00 0.00 64 1010.7
20260509223807 74 159 3.0 4.0 0.00 0.00 0.00 64 1010.8
20260509223304 74 159 3.0 4.0 0.00 0.00 0.00 64 1010.8
20260509222800 72 180 4.0 7.0 0.00 0.00 0.00 65 1010.8
20260509222256 72 180 4.0 7.0 0.00 0.00 0.00 65 1010.7
20260509221752 72 180 4.0 7.0 0.00 0.00 0.00 65 1010.7
20260509221249 72 180 4.0 7.0 0.00 0.00 0.00 65 1010.7
20260509220744 72 145 3.0 6.0 0.00 0.00 0.00 64 1010.9
20260509220241 72 145 3.0 6.0 0.00 0.00 0.00 64 1010.8
20260509215736 72 145 3.0 6.0 0.00 0.00 0.00 64 1010.8
20260509215233 72 145 3.0 6.0 0.00 0.00 0.00 64 1010.6
20260509214730 72 145 3.0 6.0 0.00 0.00 0.00 64 1010.7
20260509214227 72 145 3.0 6.0 0.00 0.00 0.00 64 1010.5
20260509213724 72 145 3.0 6.0 0.00 0.00 0.00 64 1010.6
20260509213220 72 145 3.0 6.0 0.00 0.00 0.00 64 1010.3
20260509212718 72 145 3.0 6.0 0.00 0.00 0.00 64 1010.5
20260509212214 72 145 3.0 6.0 0.00 0.00 0.00 64 1010.5
20260509211710 72 167 10.0 10.0 0.00 0.00 0.00 63 1010.3
20260509211207 72 131 9.0 10.0 0.00 0.00 0.00 63 1010.5
20260509210703 72 131 9.0 10.0 0.00 0.00 0.00 63 1010.4
20260509210201 72 131 9.0 10.0 0.00 0.00 0.00 63 1010.4
20260509205656 72 131 9.0 10.0 0.00 0.00 0.00 63 1010.5
20260509205155 72 138 4.0 5.0 0.00 0.00 0.00 64 1010.5
20260509204652 72 131 4.0 7.0 0.00 0.00 0.00 64 1010.4
20260509204148 72 117 5.0 9.0 0.00 0.00 0.00 63 1010.5
20260509203644 72 176 9.0 17.0 0.00 0.00 0.00 63 1010.4
20260509203143 72 155 8.0 13.0 0.00 0.00 0.00 62 1010.4
20260509202643 73 173 10.0 11.0 0.00 0.00 0.00 62 1010.4
20260509202138 72 132 5.0 8.0 0.00 0.00 0.00 62 1010.4
20260509201633 72 148 3.0 8.0 0.00 0.00 0.00 60 1010.5
20260509201131 72 135 4.0 6.0 0.00 0.00 0.00 62 1010.5
20260509200627 72 110 5.0 6.0 0.00 0.00 0.00 61 1010.7
20260509200122 72 128 8.0 10.0 0.00 0.00 0.00 60 1010.7
20260509195618 72 142 3.0 6.0 0.00 0.00 0.00 59 1010.7
20260509195113 72 148 2.0 5.0 0.00 0.00 0.00 60 1010.7
20260509194612 72 83 6.0 10.0 0.00 0.00 0.00 58 1010.8
20260509194110 73 99 4.0 7.0 0.00 0.00 0.00 58 1010.8
20260509193606 73 98 4.0 4.0 0.00 0.00 0.00 58 1010.8
20260509193102 73 87 2.0 6.0 0.00 0.00 0.00 57 1011.0
20260509192559 73 168 6.0 6.0 0.00 0.00 0.00 56 1011.0
20260509192054 73 88 5.0 9.0 0.00 0.00 0.00 56 1011.0
20260509191554 73 179 12.0 13.0 0.00 0.00 0.00 55 1011.1
20260509191050 73 131 5.0 5.0 0.00 0.00 0.00 57 1011.2
20260509190547 73 175 10.0 12.0 0.00 0.00 0.00 55 1011.2
20260509190045 74 124 6.0 8.0 0.00 0.00 0.00 53 1010.9
20260509185543 75 140 15.0 16.0 0.00 0.00 0.00 52 1010.8
20260509185039 76 132 3.0 11.0 0.00 0.00 0.00 52 1011.1
20260509184537 76 107 3.0 14.0 0.00 0.00 0.00 53 1010.8
20260509184033 75 168 5.0 6.0 0.00 0.00 0.00 52 1010.9
20260509183528 75 129 4.0 5.0 0.00 0.00 0.00 53 1011.0
20260509183025 75 99 5.0 10.0 0.00 0.00 0.00 51 1011.2
20260509182521 74 140 13.0 15.0 0.00 0.00 0.00 50 1011.3
20260509182018 75 126 3.0 11.0 0.00 0.00 0.00 51 1011.2
20260509181517 75 140 11.0 13.0 0.00 0.00 0.00 49 1011.3
20260509181014 74 115 2.0 5.0 0.00 0.00 0.00 53 1011.5
20260509180508 73 140 11.0 12.0 0.00 0.00 0.00 51 1011.7
20260509180007 73 140 11.0 12.0 0.00 0.00 0.00 51 1011.8
20260509175502 73 140 11.0 12.0 0.00 0.00 0.00 51 1011.6
20260509174959 73 96 6.0 8.0 0.00 0.00 0.00 55 1011.8
20260509174455 73 96 6.0 8.0 0.00 0.00 0.00 55 1011.8
20260509173951 73 96 6.0 8.0 0.00 0.00 0.00 55 1012.0
20260509173450 73 96 6.0 8.0 0.00 0.00 0.00 55 1012.0